Location: Newark
(48.0000°N, 67.0000°E)
Time: 10:47:09
(UTC+00:00)

A-11 Canister half - Pass Details

Date: 21 February 2020
Orbit: 1516 x 1683 km, 47.2° (Epoch: 06 April)

Event Time Altitude Azimuth Distance (km) Brightness Sun altitude
Rises 16:21:52 0° 284° (WNW) 4,840 12.7 -33.4°
Reaches altitude 10° 16:25:02 10° 282° (WNW) 3,830 11.9 -33.9°
Maximum altitude 16:34:39 70° 202° (SSW) 1,646 8.9 -35.4°
Enters shadow 16:34:56 70° 190° (S) 1,648 8.9 -35.4°
